LTAC Weather Reports


time (UTC)temp
F
wind
direction
speed
knots
gust
knots
rain 1hr
in
rain 24hr
in
rain mn
in
humidity
%
barometer
mb
20260906110003 84 190 7.0 0.0 0.00 0.00 0.00 21 1018.0
20260906104503 84 0 5.2 0.0 0.00 0.00 0.00 23 1018.0
20260906103003 84 0 5.2 0.0 0.00 0.00 0.00 23 1018.0
20260906100004 82 0 4.3 0.0 0.00 0.00 0.00 26 1019.0
20260906093004 81 200 6.1 0.0 0.00 0.00 0.00 28 1019.0
20260906090004 79 270 4.3 0.0 0.00 0.00 0.00 34 1019.0
20260906083003 77 0 2.6 0.0 0.00 0.00 0.00 36 1019.0
20260906074503 73 0 1.7 0.0 0.00 0.00 0.00 38 1019.0
20260906071504 70 100 2.6 0.0 0.00 0.00 0.00 43 1019.0
20260906070004 70 100 2.6 0.0 0.00 0.00 0.00 43 1019.0
20260906063004 66 20 4.3 0.0 0.00 0.00 0.00 45 1019.0
20260906061503 64 20 4.3 0.0 0.00 0.00 0.00 45 1020.0
20260906060003 64 20 4.3 0.0 0.00 0.00 0.00 45 1020.0
20260906053004 61 30 4.3 0.0 0.00 0.00 0.00 48 1019.0
20260906050004 57 30 4.3 0.0 0.00 0.00 0.00 54 1019.0
20260906044503 55 0 0.9 0.0 0.00 0.00 0.00 54 1019.0
20260906041503 57 180 2.6 0.0 0.00 0.00 0.00 50 1019.0
20260906040004 57 180 2.6 0.0 0.00 0.00 0.00 50 1019.0
20260906031503 55 0 0.9 0.0 0.00 0.00 0.00 58 1019.0
20260906030004 55 0 0.9 0.0 0.00 0.00 0.00 58 1019.0
20260906021503 59 0 2.6 0.0 0.00 0.00 0.00 47 1019.0
20260906020004 59 0 2.6 0.0 0.00 0.00 0.00 47 1019.0
20260906014504 59 360 2.6 0.0 0.00 0.00 0.00 51 1019.0
20260906013003 59 360 2.6 0.0 0.00 0.00 0.00 51 1019.0
20260906011503 61 0 0.9 0.0 0.00 0.00 0.00 48 1019.0
20260906010004 61 0 0.9 0.0 0.00 0.00 0.00 48 1019.0
20260906003003 63 0 2.6 0.0 0.00 0.00 0.00 45 1019.0
20260906001503 63 0 2.6 0.0 0.00 0.00 0.00 48 1019.0
20260905234503 61 40 6.1 0.0 0.00 0.00 0.00 48 1019.0
20260905233004 61 40 6.1 0.0 0.00 0.00 0.00 48 1019.0
20260905230003 63 40 0.9 0.0 0.00 0.00 0.00 42 1019.0
20260905224503 63 50 0.9 0.0 0.00 0.00 0.00 42 1019.0
20260905220005 64 40 10.4 0.0 0.00 0.00 0.00 42 1019.0
20260905213004 66 30 10.4 0.0 0.00 0.00 0.00 39 1019.0
20260905210003 66 40 7.0 0.0 0.00 0.00 0.00 39 1019.0
20260905204504 68 30 5.2 0.0 0.00 0.00 0.00 34 1019.0
20260905201504 70 340 4.3 0.0 0.00 0.00 0.00 32 1019.0
20260905200004 70 340 4.3 0.0 0.00 0.00 0.00 32 1019.0
20260905193004 68 40 7.0 0.0 0.00 0.00 0.00 34 1019.0
20260905183004 73 80 6.1 0.0 0.00 0.00 0.00 28 1019.0
20260905180004 75 80 7.8 0.0 0.00 0.00 0.00 27 1018.0
20260905173004 77 80 7.0 0.0 0.00 0.00 0.00 25 1018.0
20260905171503 79 70 7.8 0.0 0.00 0.00 0.00 24 1018.0
20260905170004 79 70 7.8 0.0 0.00 0.00 0.00 24 1018.0
20260905163004 81 80 7.0 0.0 0.00 0.00 0.00 24 1018.0
20260905154503 84 30 4.3 0.0 0.00 0.00 0.00 25 1018.0
20260905150004 82 80 7.0 0.0 0.00 0.00 0.00 26 1018.0
20260905144503 84 50 6.1 0.0 0.00 0.00 0.00 23 1018.0
20260905140004 84 80 5.2 0.0 0.00 0.00 0.00 23 1018.0
20260905134503 82 0 5.2 0.0 0.00 0.00 0.00 24 1018.0
20260905133003 82 0 5.2 0.0 0.00 0.00 0.00 24 1018.0
20260905131503 84 0 4.3 0.0 0.00 0.00 0.00 23 1019.0
20260905130004 84 0 4.3 0.0 0.00 0.00 0.00 23 1019.0
20260905124504 82 50 5.2 0.0 0.00 0.00 0.00 26 1019.0
20260905123004 82 50 5.2 0.0 0.00 0.00 0.00 26 1019.0
20260905114503 82 0 4.3 0.0 0.00 0.00 0.00 24 1020.0